Weather in Podolsk

Russia / Orenburg Oblast     52°49′57″N   53°35′30″E
temp.,
°C
wind,
m/s
gust,
m/s
humid.,
%
clouds,
%
prec.,
mm/h
press.,
hPa
HPBL,
m
15 august, mon
mon1523:00+18ne512484 0.0 1019306
02:00+15nne39593 0.0 1019166
05:00+14nne410620 0.0 1019206
08:00+15ne58595 0.0 1020257
11:00+23ene56415 0.0 1019837
14:00+28e553132 0.0 10191686
17:00+29ene553021 0.0 10182274
20:00+25ne59414 0.0 1019328
16 august, tue
tue1623:00+20ene613545 0.0 1020349
02:00+17ene411515 0.0 1021246
05:00+15ene38600 0.0 1022146
08:00+18ene47551 0.0 1023223
11:00+24ene44373 0.0 1023841
14:00+27ene43325 0.0 10221843
17:00+28ene442750 0.0 10212038
20:00+24ne593891 0.0 1022277
17 august, wed
wed1723:00+18ene4114864 0.0 1023208
02:00+16ene37555 0.0 1023109
05:00+14ne22595 0.0 102324
08:00+17ne36535 0.0 1023168
11:00+24ene44350 0.0 1022672
14:00+28ene32275 0.0 10201459
17:00+29ne322499 0.0 10192092
20:00+24ne4836100 0.0 1019143
18 august, thu
thu1823:00+20ene51250100 0.0 1020273
02:00+17ene4106274 0.0 1020216
05:00+15ene375790 0.0 1020125
08:00+17ene4855100 0.0 1020215
11:00+24ene5638100 0.0 1020678
14:00+27ene562896 0.0 10201440
17:00+28ene5528100 0.0 10191592
20:00+24ne46431 0.0 1020130
19 august, fri
fri1923:00+19ene35573 0.0 102174
02:00+17e236630 0.0 102129
05:00+16e3471100 0.0 102362
08:00+18e476576 0.0 1024225
11:00+23e454452 0.0 10251065
14:00+26e453349 0.0 10241968
17:00+27ene4431100 0.0 10242097
20:00+23e2241100 0.0 102424